Weather History for KIMT - May, 2013

Change the Weather History Date:

Saturday, May 18, 2013

  Actual Average (KESC) Record (KESC)
Temperature  
Mean Temperature 58 °F -  
Max Temperature 68 °F 58 °F - (-1)
Min Temperature 48 °F 43 °F - (-1)
Degree Days  
Heating Degree Days 7    
Growing Degree Days 8 (Base 50)    
Moisture  
Dew Point 46 °F    
Average Humidity 71    
Maximum Humidity 93    
Minimum Humidity 49    
Precipitation  
Precipitation 0.08 in - - ()
Sea Level Pressure  
Sea Level Pressure 30.07 in    
Wind  
Wind Speed 5 mph (SE)    
Max Wind Speed 13 mph    
Max Gust Speed 20 mph    
Visibility 9 miles    
Events Rain    
Averages and records for this station are not official NWS values.
T = Trace of Precipitation, MM = Missing Value Source: NWS Daily Summary

Daily Weather History Graph

Daily Weather History Graph

Search for Another Location

Airport or City:

Trip Planner

Search our weather history database for the weather conditions in past years. The results will help you decide how hot, cold, wet, or windy it might be!

Date:

Astronomy

May. 18, 2013 Rise Set
Actual Time 5:17 AM CDT 8:21 PM CDT
Civil Twilight 4:41 AM CDT 8:56 PM CDT
Nautical Twilight 3:56 AM CDT 9:42 PM CDT
Astronomical Twilight 3:01 AM CDT 10:38 PM CDT
Moon 1:03 PM CDT (5/18) 1:32 AM CDT (5/18)
Length of Visible Light 16h 14m
Length of Day
15h 03m
First Quarter, 55% of the Moon is Illuminated
May 18
First Quarter
May 24
Full
May 31
Last Quarter
Jun 8
New
Jun 16
First Quarter

Hourly Weather History & Observations

Time (CDT) Temp. Dew Point Humidity Pressure Visibility Wind Dir Wind Speed Gust Speed Precip Events Conditions
12:54 AM 52.0 °F 41.0 °F 66% 30.14 in 10.0 mi SE 3.5 mph - N/A   Overcast
1:54 AM 51.1 °F 42.1 °F 71% 30.14 in 10.0 mi Calm Calm - N/A   Overcast
2:54 AM 51.1 °F 44.1 °F 77% 30.13 in 10.0 mi Calm Calm - 0.00 in   Overcast
3:54 AM 51.1 °F 42.1 °F 71% 30.12 in 10.0 mi ESE 3.5 mph - N/A   Overcast
4:54 AM 48.9 °F 46.9 °F 93% 30.12 in 7.0 mi SE 3.5 mph - 0.01 in Rain Light Rain
5:22 AM 48.2 °F 46.4 °F 93% 30.12 in 3.0 mi Calm Calm - 0.05 in Rain Rain
5:47 AM 48.2 °F 46.4 °F 93% 30.12 in 4.0 mi SE 4.6 mph - 0.07 in Rain Light Rain
5:54 AM 48.9 °F 46.9 °F 93% 30.12 in 5.0 mi ESE 3.5 mph - 0.07 in Rain Light Rain
6:54 AM 48.9 °F 46.9 °F 93% 30.14 in 10.0 mi ESE 6.9 mph - 0.00 in   Overcast
7:54 AM 48.9 °F 46.9 °F 93% 30.14 in 10.0 mi ESE 6.9 mph - N/A   Overcast
8:54 AM 51.1 °F 48.0 °F 89% 30.14 in 10.0 mi ESE 4.6 mph - N/A   Overcast
9:54 AM 52.0 °F 48.0 °F 86% 30.12 in 10.0 mi ESE 6.9 mph - N/A   Mostly Cloudy
10:54 AM 55.9 °F 48.9 °F 77% 30.12 in 10.0 mi ESE 8.1 mph - N/A   Overcast
11:54 AM 59.0 °F 48.9 °F 69% 30.09 in 10.0 mi ESE 9.2 mph - N/A   Mostly Cloudy
12:54 PM 62.1 °F 48.9 °F 62% 30.07 in 10.0 mi ESE 10.4 mph - N/A   Mostly Cloudy
1:42 PM 64.4 °F 48.2 °F 56% 30.05 in 10.0 mi SE 9.2 mph - N/A   Overcast
2:54 PM 66.0 °F 46.9 °F 50% 30.03 in 10.0 mi SSE 12.7 mph - N/A   Mostly Cloudy
3:54 PM 66.0 °F 46.9 °F 50% 30.01 in 10.0 mi SE 9.2 mph 18.4 mph N/A   Partly Cloudy
4:54 PM 68.0 °F 48.0 °F 49% 29.99 in 10.0 mi ESE 11.5 mph 19.6 mph N/A   Clear
5:54 PM 64.0 °F 46.9 °F 54% 29.99 in 10.0 mi ESE 6.9 mph - N/A   Overcast
6:54 PM 64.0 °F 46.9 °F 54% 30.00 in 10.0 mi SE 9.2 mph - N/A   Scattered Clouds
7:54 PM 61.0 °F 46.0 °F 58% 30.00 in 10.0 mi ESE 8.1 mph - N/A   Overcast
8:54 PM 59.0 °F 45.0 °F 60% 29.99 in 10.0 mi SE 4.6 mph - N/A   Overcast
9:54 PM 57.9 °F 45.0 °F 62% 30.00 in 10.0 mi SE 3.5 mph - N/A   Overcast
10:54 PM 55.9 °F 45.0 °F 67% 29.98 in 10.0 mi SE 4.6 mph - N/A   Mostly Cloudy
11:54 PM 55.9 °F 45.0 °F 67% 29.96 in 10.0 mi SE 3.5 mph - N/A   Mostly Cloudy